Location: Unspecified
(43.4354°N, 0.0000°E)
Time: 07:07:18
(UTC+00:00)

Tiros 1 despin weight - Visible Passes

Search period start: 16 October 2019 00:00
Search period end: 26 October 2019 00:00
Orbit: 594 x 643 km, 48.2° (Epoch: 15 October)

Date Brightness Start Highest point End Pass type
(mag) Time Alt. Az. Time Alt. Az. Time Alt. Az.
16 Oct ? 02:42:54 15° ENE 02:42:54 15° ENE 02:43:43 10° ENE visible
16 Oct ? 04:19:58 46° NW 04:20:47 52° N 04:25:23 10° ENE visible
17 Oct ? 02:58:50 20° ENE 02:58:50 20° ENE 03:00:20 10° ENE visible
17 Oct ? 04:35:54 32° NW 04:37:35 47° N 04:42:07 10° ENE visible
18 Oct ? 03:14:46 27° NE 03:14:46 27° NE 03:16:58 10° ENE visible
18 Oct ? 04:51:49 23° WNW 04:54:24 47° N 04:58:56 10° E visible
19 Oct ? 03:30:41 34° NE 03:30:41 34° NE 03:33:39 10° ENE visible
19 Oct ? 05:07:45 17° WNW 05:11:11 55° NNE 05:15:47 10° E visible
20 Oct ? 03:46:38 42° NNE 03:46:38 42° NNE 03:50:26 10° ENE visible
20 Oct ? 05:23:42 13° WNW 05:27:55 72° NNE 05:32:34 10° ESE visible
21 Oct ? 04:02:37 49° N 04:02:42 50° N 04:07:15 10° E visible
21 Oct ? 05:39:49 10° WNW 05:44:32 78° SSW 05:49:11 10° ESE visible
22 Oct ? 02:41:33 12° ENE 02:41:33 12° ENE 02:41:56 10° ENE visible
22 Oct ? 04:18:38 51° NNW 04:19:27 61° NNE 04:24:06 10° E visible
23 Oct ? 02:57:38 17° ENE 02:57:38 17° ENE 02:58:44 10° ENE visible
23 Oct ? 04:34:42 45° WNW 04:36:08 84° NNE 04:40:50 10° ESE visible
24 Oct ? 03:13:46 22° E 03:13:46 22° E 03:15:35 10° E visible
24 Oct ? 04:50:51 35° W 04:52:42 64° SSW 04:57:20 10° SE visible
25 Oct ? 03:30:00 29° E 03:30:00 29° E 03:32:24 10° ESE visible
25 Oct ? 05:07:05 25° W 05:09:09 37° SW 05:13:27 10° SSE visible
